| time (UTC) | temp F | wind direction | speed knots | gust knots | rain 1hr in | rain 24hr in | rain mn in | humidity % | barometer mb |
| 20260507065133 | 57 | 338 | 5.2 | 9.6 | 0.00 | 0.00 | 0.00 | 83 | 1008.1 |
| 20260507064133 | 57 | 315 | 5.2 | 11.3 | 0.00 | 0.00 | 0.00 | 83 | 1007.9 |
| 20260507063633 | 57 | 321 | 5.2 | 10.4 | 0.00 | 0.00 | 0.00 | 83 | 1008.0 |
| 20260507063133 | 57 | 313 | 4.3 | 10.4 | 0.00 | 0.00 | 0.00 | 83 | 1008.0 |
| 20260507061640 | 56 | 348 | 6.1 | 12.2 | 0.00 | 0.00 | 0.00 | 84 | 1007.7 |
| 20260507061132 | 56 | 341 | 5.2 | 11.3 | 0.00 | 0.00 | 0.00 | 84 | 1007.7 |
| 20260507060633 | 56 | 355 | 5.2 | 11.3 | 0.00 | 0.00 | 0.00 | 84 | 1007.7 |
| 20260507060132 | 56 | 11 | 5.2 | 9.6 | 0.00 | 0.00 | 0.00 | 84 | 1007.6 |
| 20260507055632 | 56 | 319 | 5.2 | 10.4 | 0.00 | 0.00 | 0.00 | 84 | 1007.5 |
| 20260507054633 | 56 | 0 | 5.2 | 11.3 | 0.00 | 0.00 | 0.00 | 83 | 1007.4 |
| 20260507053632 | 56 | 0 | 5.2 | 10.4 | 0.00 | 0.00 | 0.00 | 83 | 1007.4 |
| 20260507053133 | 56 | 337 | 5.2 | 13.0 | 0.00 | 0.00 | 0.00 | 83 | 1007.4 |
| 20260507052632 | 56 | 5 | 7.0 | 13.9 | 0.00 | 0.00 | 0.00 | 84 | 1007.4 |
| 20260507051632 | 56 | 348 | 6.1 | 13.0 | 0.00 | 0.00 | 0.00 | 84 | 1007.5 |
| 20260507051132 | 56 | 0 | 7.0 | 13.0 | 0.00 | 0.00 | 0.00 | 84 | 1007.5 |
| 20260507050645 | 56 | 342 | 7.8 | 13.0 | 0.00 | 0.00 | 0.00 | 84 | 1007.4 |
| 20260507050132 | 56 | 333 | 7.0 | 13.0 | 0.00 | 0.00 | 0.00 | 83 | 1007.6 |
| 20260507045632 | 56 | 331 | 6.1 | 12.2 | 0.00 | 0.00 | 0.00 | 84 | 1007.5 |
| 20260507045132 | 56 | 320 | 7.0 | 12.2 | 0.00 | 0.00 | 0.00 | 84 | 1007.5 |
| 20260507044632 | 56 | 330 | 7.0 | 13.0 | 0.00 | 0.00 | 0.00 | 84 | 1007.5 |
| 20260507044132 | 56 | 0 | 7.0 | 13.9 | 0.00 | 0.00 | 0.00 | 83 | 1007.6 |
| 20260507043632 | 56 | 349 | 7.0 | 13.9 | 0.00 | 0.00 | 0.00 | 83 | 1007.6 |
| 20260507043132 | 56 | 5 | 7.0 | 13.9 | 0.00 | 0.00 | 0.00 | 83 | 1007.6 |
| 20260507042633 | 56 | 348 | 7.8 | 13.9 | 0.00 | 0.00 | 0.00 | 83 | 1007.7 |
| 20260507041632 | 56 | 19 | 7.8 | 13.9 | 0.00 | 0.00 | 0.00 | 83 | 1007.7 |
| 20260507040632 | 56 | 346 | 8.7 | 13.9 | 0.00 | 0.00 | 0.00 | 83 | 1007.8 |
| 20260507040132 | 56 | 328 | 7.8 | 13.9 | 0.00 | 0.00 | 0.00 | 83 | 1007.9 |
| 20260507035632 | 56 | 17 | 7.0 | 13.9 | 0.00 | 0.00 | 0.00 | 83 | 1008.1 |
| 20260507035132 | 56 | 336 | 7.8 | 13.9 | 0.00 | 0.00 | 0.00 | 83 | 1008.2 |
| 20260507034632 | 56 | 342 | 7.0 | 13.9 | 0.00 | 0.00 | 0.00 | 83 | 1008.2 |
| 20260507034132 | 56 | 355 | 6.1 | 13.0 | 0.00 | 0.00 | 0.00 | 83 | 1008.2 |
| 20260507033631 | 56 | 317 | 6.1 | 11.3 | 0.00 | 0.00 | 0.00 | 83 | 1008.3 |
| 20260507033131 | 56 | 13 | 5.2 | 12.2 | 0.00 | 0.00 | 0.00 | 83 | 1008.3 |
| 20260507032631 | 56 | 329 | 7.0 | 13.9 | 0.00 | 0.00 | 0.00 | 83 | 1008.5 |
| 20260507032131 | 56 | 348 | 7.8 | 14.8 | 0.00 | 0.00 | 0.00 | 82 | 1008.4 |
| 20260507031632 | 56 | 336 | 7.0 | 14.8 | 0.00 | 0.00 | 0.00 | 82 | 1008.5 |
| 20260507031132 | 56 | 5 | 7.8 | 14.8 | 0.00 | 0.00 | 0.00 | 83 | 1008.5 |
| 20260507030632 | 56 | 348 | 7.8 | 14.8 | 0.00 | 0.00 | 0.00 | 82 | 1008.5 |
| 20260507030131 | 56 | 333 | 7.8 | 14.8 | 0.00 | 0.00 | 0.00 | 82 | 1008.5 |
| 20260507025631 | 56 | 355 | 8.7 | 15.6 | 0.00 | 0.00 | 0.00 | 82 | 1008.5 |
| 20260507025132 | 57 | 337 | 9.6 | 15.6 | 0.00 | 0.00 | 0.00 | 82 | 1008.3 |
| 20260507024632 | 57 | 342 | 8.7 | 13.9 | 0.00 | 0.00 | 0.00 | 83 | 1008.4 |
| 20260507024132 | 57 | 336 | 8.7 | 15.6 | 0.00 | 0.00 | 0.00 | 83 | 1008.4 |
| 20260507023631 | 57 | 333 | 8.7 | 15.6 | 0.00 | 0.00 | 0.00 | 83 | 1008.5 |
| 20260507022631 | 56 | 333 | 8.7 | 15.6 | 0.00 | 0.00 | 0.00 | 82 | 1008.6 |
| 20260507022132 | 57 | 9 | 7.0 | 13.0 | 0.00 | 0.00 | 0.00 | 83 | 1008.7 |
| 20260507021132 | 57 | 0 | 7.8 | 13.9 | 0.00 | 0.00 | 0.00 | 82 | 1008.7 |
| 20260507020632 | 57 | 331 | 7.0 | 13.9 | 0.00 | 0.00 | 0.00 | 82 | 1008.7 |
| 20260507020131 | 57 | 328 | 7.0 | 13.9 | 0.00 | 0.00 | 0.00 | 82 | 1008.7 |
| 20260507015632 | 57 | 323 | 7.8 | 13.9 | 0.00 | 0.00 | 0.00 | 82 | 1008.8 |
| 20260507015131 | 57 | 355 | 7.0 | 13.0 | 0.00 | 0.00 | 0.00 | 82 | 1008.8 |
| 20260507014632 | 57 | 330 | 7.0 | 13.0 | 0.00 | 0.00 | 0.00 | 82 | 1008.9 |
| 20260507014131 | 57 | 5 | 7.8 | 13.0 | 0.00 | 0.00 | 0.00 | 82 | 1008.8 |
| 20260507013632 | 57 | 338 | 8.7 | 14.8 | 0.00 | 0.00 | 0.00 | 82 | 1008.9 |
| 20260507012631 | 57 | 348 | 6.1 | 12.2 | 0.00 | 0.00 | 0.00 | 82 | 1009.0 |
| 20260507011632 | 57 | 16 | 7.8 | 14.8 | 0.00 | 0.00 | 0.00 | 82 | 1009.1 |
| 20260507011132 | 57 | 315 | 8.7 | 13.9 | 0.00 | 0.00 | 0.00 | 82 | 1009.0 |
| 20260507010632 | 57 | 316 | 7.8 | 13.9 | 0.00 | 0.00 | 0.00 | 82 | 1009.0 |
| 20260507010131 | 57 | 30 | 7.8 | 16.5 | 0.00 | 0.00 | 0.00 | 82 | 1009.0 |
| 20260507005632 | 57 | 339 | 7.8 | 16.5 | 0.00 | 0.00 | 0.00 | 82 | 1009.0 |
| 20260507005131 | 57 | 350 | 7.8 | 14.8 | 0.00 | 0.00 | 0.00 | 82 | 1009.1 |
| 20260507004632 | 57 | 343 | 7.8 | 14.8 | 0.00 | 0.00 | 0.00 | 82 | 1009.1 |
| 20260507003131 | 57 | 23 | 7.0 | 13.0 | 0.00 | 0.00 | 0.00 | 82 | 1009.1 |
| 20260507002632 | 57 | 336 | 6.1 | 13.0 | 0.00 | 0.00 | 0.00 | 82 | 1009.1 |
| 20260507002132 | 57 | 5 | 6.1 | 12.2 | 0.00 | 0.00 | 0.00 | 82 | 1009.1 |
| 20260507001132 | 57 | 5 | 7.0 | 13.0 | 0.00 | 0.00 | 0.00 | 82 | 1009.2 |
| 20260507000631 | 57 | 332 | 7.0 | 13.0 | 0.00 | 0.00 | 0.00 | 82 | 1009.3 |
| 20260507000132 | 57 | 25 | 7.0 | 12.2 | 0.00 | 0.00 | 0.00 | 82 | 1009.4 |
| 20260506235632 | 57 | 347 | 6.1 | 12.2 | 0.00 | 0.00 | 0.00 | 82 | 1009.4 |
| 20260506234632 | 57 | 340 | 6.1 | 12.2 | 0.00 | 0.00 | 0.00 | 81 | 1009.5 |
| 20260506233131 | 57 | 347 | 7.0 | 13.9 | 0.00 | 0.00 | 0.00 | 81 | 1009.5 |
| 20260506232131 | 57 | 5 | 6.1 | 13.9 | 0.00 | 0.00 | 0.00 | 81 | 1009.4 |
| 20260506231631 | 57 | 34 | 6.1 | 13.9 | 0.00 | 0.00 | 0.00 | 82 | 1009.4 |
| 20260506231132 | 57 | 15 | 5.2 | 11.3 | 0.00 | 0.00 | 0.00 | 82 | 1009.5 |
| 20260506230632 | 57 | 355 | 6.1 | 13.0 | 0.00 | 0.00 | 0.00 | 82 | 1009.5 |
| 20260506230131 | 57 | 11 | 7.0 | 13.0 | 0.00 | 0.00 | 0.00 | 82 | 1009.4 |
| 20260506225632 | 57 | 5 | 7.0 | 13.0 | 0.00 | 0.00 | 0.00 | 81 | 1009.6 |
| 20260506224632 | 57 | 23 | 6.1 | 13.0 | 0.00 | 0.00 | 0.00 | 81 | 1009.5 |
| 20260506224132 | 57 | 338 | 6.1 | 12.2 | 0.00 | 0.00 | 0.00 | 82 | 1009.6 |
| 20260506223632 | 57 | 355 | 6.1 | 12.2 | 0.00 | 0.00 | 0.00 | 82 | 1009.7 |
| 20260506223131 | 57 | 355 | 6.1 | 13.9 | 0.00 | 0.00 | 0.00 | 82 | 1009.6 |
| 20260506222631 | 57 | 334 | 6.1 | 13.9 | 0.00 | 0.00 | 0.00 | 82 | 1009.6 |
| 20260506222131 | 57 | 355 | 7.0 | 14.8 | 0.00 | 0.00 | 0.00 | 82 | 1009.6 |
| 20260506221632 | 57 | 329 | 7.0 | 14.8 | 0.00 | 0.00 | 0.00 | 81 | 1009.7 |
| 20260506221131 | 57 | 5 | 5.2 | 13.9 | 0.00 | 0.00 | 0.00 | 81 | 1009.7 |
| 20260506220631 | 57 | 355 | 6.1 | 13.0 | 0.00 | 0.00 | 0.00 | 81 | 1009.8 |
| 20260506220132 | 57 | 355 | 7.0 | 13.0 | 0.00 | 0.00 | 0.00 | 81 | 1009.9 |
| 20260506215631 | 57 | 321 | 7.0 | 12.2 | 0.00 | 0.00 | 0.00 | 81 | 1009.9 |
| 20260506214632 | 57 | 26 | 7.0 | 13.0 | 0.00 | 0.00 | 0.00 | 80 | 1009.9 |
| 20260506213632 | 57 | 350 | 7.0 | 12.2 | 0.00 | 0.00 | 0.00 | 81 | 1009.9 |
| 20260506213131 | 58 | 335 | 7.8 | 13.0 | 0.00 | 0.00 | 0.00 | 81 | 1009.9 |
| 20260506212631 | 57 | 12 | 8.7 | 16.5 | 0.00 | 0.00 | 0.00 | 81 | 1010.0 |
| 20260506212131 | 57 | 5 | 7.8 | 16.5 | 0.00 | 0.00 | 0.00 | 81 | 1010.0 |
| 20260506211632 | 58 | 14 | 7.0 | 13.9 | 0.00 | 0.00 | 0.00 | 81 | 1010.0 |
| 20260506211132 | 58 | 26 | 7.8 | 13.0 | 0.00 | 0.00 | 0.00 | 81 | 1009.9 |
| 20260506210632 | 58 | 0 | 7.8 | 14.8 | 0.00 | 0.00 | 0.00 | 80 | 1010.0 |
| 20260506210132 | 58 | 333 | 7.8 | 16.5 | 0.00 | 0.00 | 0.00 | 80 | 1009.9 |
| 20260506205632 | 58 | 17 | 8.7 | 16.5 | 0.00 | 0.00 | 0.00 | 80 | 1009.9 |
| 20260506205131 | 58 | 5 | 9.6 | 16.5 | 0.00 | 0.00 | 0.00 | 80 | 1009.8 |
| 20260506204632 | 58 | 309 | 8.7 | 16.5 | 0.00 | 0.00 | 0.00 | 80 | 1009.9 |
| 20260506204132 | 58 | 5 | 7.8 | 15.6 | 0.00 | 0.00 | 0.00 | 81 | 1009.8 |
| 20260506203631 | 58 | 26 | 8.7 | 15.6 | 0.00 | 0.00 | 0.00 | 81 | 1009.8 |
| 20260506202631 | 58 | 355 | 7.0 | 14.8 | 0.00 | 0.00 | 0.00 | 81 | 1009.7 |
| 20260506202131 | 58 | 317 | 8.7 | 17.4 | 0.00 | 0.00 | 0.00 | 81 | 1009.7 |
| 20260506201632 | 58 | 340 | 8.7 | 19.1 | 0.00 | 0.00 | 0.00 | 81 | 1009.6 |
| 20260506200131 | 58 | 342 | 7.8 | 14.8 | 0.00 | 0.00 | 0.00 | 81 | 1009.6 |
| 20260506195131 | 58 | 348 | 7.0 | 14.8 | 0.00 | 0.00 | 0.00 | 80 | 1009.6 |
| 20260506194631 | 58 | 341 | 7.0 | 13.0 | 0.00 | 0.00 | 0.00 | 81 | 1009.6 |
| 20260506193632 | 58 | 20 | 6.1 | 10.4 | 0.00 | 0.00 | 0.00 | 80 | 1009.7 |
| 20260506192631 | 58 | 34 | 6.1 | 12.2 | 0.00 | 0.00 | 0.00 | 80 | 1009.5 |
| 20260506192132 | 59 | 355 | 7.0 | 12.2 | 0.00 | 0.00 | 0.00 | 80 | 1009.5 |
| 20260506191632 | 59 | 0 | 7.8 | 14.8 | 0.00 | 0.00 | 0.00 | 79 | 1009.4 |
| 20260506191132 | 59 | 17 | 9.6 | 16.5 | 0.00 | 0.00 | 0.00 | 79 | 1009.4 |
| 20260506190632 | 59 | 12 | 8.7 | 16.5 | 0.00 | 0.00 | 0.00 | 79 | 1009.4 |
| 20260506190131 | 59 | 355 | 7.8 | 15.6 | 0.00 | 0.00 | 0.00 | 79 | 1009.3 |
| 20260506185632 | 59 | 15 | 7.0 | 15.6 | 0.00 | 0.00 | 0.00 | 79 | 1009.3 |
| 20260506184631 | 59 | 329 | 8.7 | 14.8 | 0.00 | 0.00 | 0.00 | 78 | 1009.5 |
| 20260506183631 | 60 | 19 | 8.7 | 16.5 | 0.00 | 0.00 | 0.00 | 78 | 1009.5 |
| 20260506183132 | 60 | 36 | 8.7 | 17.4 | 0.00 | 0.00 | 0.00 | 77 | 1009.4 |
| 20260506182132 | 61 | 349 | 7.0 | 14.8 | 0.00 | 0.00 | 0.00 | 77 | 1009.4 |
| 20260506181631 | 61 | 0 | 8.7 | 14.8 | 0.00 | 0.00 | 0.00 | 77 | 1009.4 |
| 20260506181131 | 61 | 19 | 8.7 | 14.8 | 0.00 | 0.00 | 0.00 | 76 | 1009.3 |
| 20260506180632 | 61 | 327 | 9.6 | 19.1 | 0.00 | 0.00 | 0.00 | 76 | 1009.4 |
| 20260506180131 | 62 | 350 | 9.6 | 19.1 | 0.00 | 0.00 | 0.00 | 76 | 1009.5 |
| 20260506175631 | 62 | 13 | 9.6 | 18.2 | 0.00 | 0.00 | 0.00 | 77 | 1009.3 |
| 20260506175131 | 62 | 0 | 9.6 | 18.2 | 0.00 | 0.00 | 0.00 | 76 | 1009.4 |
| 20260506174631 | 62 | 13 | 8.7 | 16.5 | 0.00 | 0.00 | 0.00 | 76 | 1009.4 |
| 20260506174131 | 62 | 0 | 8.7 | 16.5 | 0.00 | 0.00 | 0.00 | 75 | 1009.4 |
| 20260506173132 | 63 | 339 | 7.8 | 15.6 | 0.00 | 0.00 | 0.00 | 74 | 1009.5 |
| 20260506172631 | 63 | 355 | 7.8 | 15.6 | 0.00 | 0.00 | 0.00 | 74 | 1009.6 |
| 20260506172132 | 63 | 337 | 8.7 | 15.6 | 0.00 | 0.00 | 0.00 | 74 | 1009.6 |
| 20260506171631 | 63 | 355 | 9.6 | 16.5 | 0.00 | 0.00 | 0.00 | 73 | 1009.6 |
| 20260506170645 | 63 | 317 | 9.6 | 17.4 | 0.00 | 0.00 | 0.00 | 73 | 1009.5 |
| 20260506170131 | 63 | 319 | 8.7 | 17.4 | 0.00 | 0.00 | 0.00 | 74 | 1009.7 |
| 20260506165631 | 63 | 310 | 10.4 | 18.2 | 0.00 | 0.00 | 0.00 | 73 | 1009.7 |
| 20260506165131 | 63 | 333 | 10.4 | 18.2 | 0.00 | 0.00 | 0.00 | 72 | 1009.8 |
| 20260506164131 | 63 | 338 | 10.4 | 17.4 | 0.00 | 0.00 | 0.00 | 73 | 1010.0 |
| 20260506163631 | 63 | 307 | 11.3 | 18.2 | 0.00 | 0.00 | 0.00 | 73 | 1009.9 |
| 20260506163131 | 63 | 355 | 12.2 | 18.2 | 0.00 | 0.00 | 0.00 | 72 | 1009.9 |
| 20260506162631 | 63 | 355 | 11.3 | 17.4 | 0.00 | 0.00 | 0.00 | 73 | 1010.1 |
| 20260506162131 | 64 | 0 | 10.4 | 17.4 | 0.00 | 0.00 | 0.00 | 71 | 1010.0 |
| 20260506161132 | 64 | 355 | 10.4 | 17.4 | 0.00 | 0.00 | 0.00 | 72 | 1009.9 |
| 20260506160631 | 64 | 348 | 9.6 | 16.5 | 0.00 | 0.00 | 0.00 | 73 | 1010.0 |
| 20260506160131 | 64 | 0 | 10.4 | 17.4 | 0.00 | 0.00 | 0.00 | 73 | 1010.0 |
| 20260506155632 | 64 | 5 | 10.4 | 17.4 | 0.00 | 0.00 | 0.00 | 73 | 1010.1 |
| 20260506155132 | 64 | 347 | 8.7 | 17.4 | 0.00 | 0.00 | 0.00 | 74 | 1010.0 |
| 20260506154632 | 64 | 348 | 7.8 | 15.6 | 0.00 | 0.00 | 0.00 | 75 | 1010.1 |
| 20260506154131 | 64 | 318 | 9.6 | 17.4 | 0.00 | 0.00 | 0.00 | 75 | 1010.1 |
| 20260506153631 | 64 | 344 | 11.3 | 18.2 | 0.00 | 0.00 | 0.00 | 73 | 1010.1 |
| 20260506153131 | 64 | 333 | 11.3 | 18.2 | 0.00 | 0.00 | 0.00 | 74 | 1010.2 |
| 20260506152632 | 64 | 342 | 11.3 | 17.4 | 0.00 | 0.00 | 0.00 | 74 | 1010.2 |
| 20260506151131 | 64 | 318 | 10.4 | 16.5 | 0.00 | 0.00 | 0.00 | 72 | 1010.3 |
| 20260506150631 | 64 | 5 | 10.4 | 17.4 | 0.00 | 0.00 | 0.00 | 74 | 1010.4 |
| 20260506150131 | 64 | 332 | 10.4 | 18.2 | 0.00 | 0.00 | 0.00 | 74 | 1010.5 |
| 20260506145632 | 64 | 355 | 8.7 | 18.2 | 0.00 | 0.00 | 0.00 | 74 | 1010.6 |
| 20260506145131 | 64 | 329 | 9.6 | 18.2 | 0.00 | 0.00 | 0.00 | 74 | 1010.7 |
| 20260506144131 | 64 | 350 | 9.6 | 17.4 | 0.00 | 0.00 | 0.00 | 74 | 1010.8 |
| 20260506143632 | 64 | 342 | 11.3 | 18.2 | 0.00 | 0.00 | 0.00 | 74 | 1010.8 |
| 20260506143132 | 64 | 338 | 11.3 | 18.2 | 0.00 | 0.00 | 0.00 | 74 | 1010.8 |
| 20260506142631 | 64 | 343 | 10.4 | 17.4 | 0.00 | 0.00 | 0.00 | 73 | 1010.7 |
| 20260506142131 | 64 | 346 | 9.6 | 17.4 | 0.00 | 0.00 | 0.00 | 74 | 1010.9 |
| 20260506141632 | 65 | 317 | 9.6 | 16.5 | 0.00 | 0.00 | 0.00 | 73 | 1010.9 |
| 20260506141131 | 65 | 355 | 7.8 | 15.6 | 0.00 | 0.00 | 0.00 | 73 | 1010.8 |
| 20260506140133 | 65 | 346 | 8.7 | 15.6 | 0.00 | 0.00 | 0.00 | 73 | 1011.1 |
| 20260506135133 | 65 | 342 | 7.8 | 15.6 | 0.00 | 0.00 | 0.00 | 72 | 1011.2 |
| 20260506134633 | 65 | 331 | 9.6 | 16.5 | 0.00 | 0.00 | 0.00 | 73 | 1011.2 |
| 20260506134132 | 65 | 11 | 9.6 | 16.5 | 0.00 | 0.00 | 0.00 | 72 | 1011.3 |
| 20260506133632 | 65 | 340 | 7.8 | 16.5 | 0.00 | 0.00 | 0.00 | 72 | 1011.3 |
| 20260506133132 | 66 | 0 | 8.7 | 15.6 | 0.00 | 0.00 | 0.00 | 71 | 1011.3 |
| 20260506132632 | 66 | 346 | 8.7 | 17.4 | 0.00 | 0.00 | 0.00 | 72 | 1011.3 |
| 20260506132131 | 65 | 319 | 7.8 | 17.4 | 0.00 | 0.00 | 0.00 | 73 | 1011.4 |
| 20260506131632 | 65 | 323 | 7.8 | 13.9 | 0.00 | 0.00 | 0.00 | 72 | 1011.3 |
| 20260506131132 | 65 | 326 | 7.8 | 13.9 | 0.00 | 0.00 | 0.00 | 71 | 1011.5 |
| 20260506130131 | 65 | 315 | 7.8 | 14.8 | 0.00 | 0.00 | 0.00 | 72 | 1011.5 |
| 20260506125632 | 66 | 5 | 7.8 | 14.8 | 0.00 | 0.00 | 0.00 | 72 | 1011.6 |
| 20260506125131 | 65 | 294 | 7.8 | 14.8 | 0.00 | 0.00 | 0.00 | 73 | 1011.6 |
| 20260506124633 | 65 | 319 | 8.7 | 14.8 | 0.00 | 0.00 | 0.00 | 73 | 1011.8 |
| 20260506124131 | 65 | 5 | 8.7 | 15.6 | 0.00 | 0.00 | 0.00 | 73 | 1011.7 |
| 20260506123632 | 65 | 320 | 8.7 | 15.6 | 0.00 | 0.00 | 0.00 | 73 | 1011.7 |
| 20260506123132 | 65 | 22 | 8.7 | 14.8 | 0.00 | 0.00 | 0.00 | 74 | 1011.8 |
| 20260506122632 | 65 | 317 | 8.7 | 17.4 | 0.00 | 0.00 | 0.00 | 74 | 1011.8 |
| 20260506122132 | 64 | 325 | 8.7 | 17.4 | 0.00 | 0.00 | 0.00 | 74 | 1011.8 |
| 20260506121631 | 65 | 340 | 7.0 | 16.5 | 0.00 | 0.00 | 0.00 | 74 | 1011.9 |
| 20260506121132 | 64 | 342 | 7.8 | 14.8 | 0.00 | 0.00 | 0.00 | 74 | 1012.0 |
| 20260506120632 | 64 | 332 | 8.7 | 19.1 | 0.00 | 0.00 | 0.00 | 74 | 1012.0 |
| 20260506120132 | 64 | 355 | 7.8 | 19.1 | 0.00 | 0.00 | 0.00 | 75 | 1012.0 |
| 20260506115632 | 64 | 355 | 8.7 | 16.5 | 0.00 | 0.00 | 0.00 | 75 | 1012.0 |
| 20260506115131 | 64 | 347 | 9.6 | 16.5 | 0.00 | 0.00 | 0.00 | 74 | 1012.1 |
| 20260506113622 | 64 | 355 | 8.7 | 14.8 | 0.00 | 0.00 | 0.00 | 73 | 1012.2 |
| 20260506113116 | 64 | 0 | 7.8 | 13.9 | 0.00 | 0.00 | 0.00 | 74 | 1012.2 |
| 20260506112610 | 64 | 342 | 7.8 | 13.0 | 0.00 | 0.00 | 0.00 | 73 | 1012.2 |
| 20260506112108 | 65 | 329 | 7.0 | 13.0 | 0.00 | 0.00 | 0.00 | 73 | 1012.3 |
| 20260506111609 | 65 | 327 | 6.1 | 11.3 | 0.00 | 0.00 | 0.00 | 75 | 1012.3 |
| 20260506111108 | 65 | 355 | 5.2 | 12.2 | 0.00 | 0.00 | 0.00 | 74 | 1012.3 |
| 20260506110614 | 65 | 305 | 5.2 | 12.2 | 0.00 | 0.00 | 0.00 | 75 | 1012.4 |
| 20260506110108 | 65 | 315 | 6.1 | 11.3 | 0.00 | 0.00 | 0.00 | 75 | 1012.3 |
| 20260506105608 | 65 | 333 | 6.1 | 11.3 | 0.00 | 0.00 | 0.00 | 74 | 1012.3 |
| 20260506105106 | 65 | 315 | 6.1 | 13.0 | 0.00 | 0.00 | 0.00 | 75 | 1012.3 |
| 20260506104607 | 65 | 0 | 6.1 | 13.0 | 0.00 | 0.00 | 0.00 | 75 | 1012.3 |
| 20260506103607 | 65 | 329 | 5.2 | 8.7 | 0.00 | 0.00 | 0.00 | 75 | 1012.4 |
| 20260506103107 | 65 | 298 | 5.2 | 10.4 | 0.00 | 0.00 | 0.00 | 74 | 1012.3 |
| 20260506102605 | 65 | 306 | 4.3 | 10.4 | 0.00 | 0.00 | 0.00 | 75 | 1012.4 |
| 20260506102106 | 65 | 331 | 5.2 | 11.3 | 0.00 | 0.00 | 0.00 | 76 | 1012.4 |
| 20260506101605 | 64 | 342 | 6.1 | 12.2 | 0.00 | 0.00 | 0.00 | 75 | 1012.3 |
| 20260506101105 | 64 | 310 | 5.2 | 12.2 | 0.00 | 0.00 | 0.00 | 75 | 1012.3 |
| 20260506100604 | 64 | 313 | 6.1 | 11.3 | 0.00 | 0.00 | 0.00 | 75 | 1012.4 |
| 20260506100104 | 64 | 355 | 6.1 | 11.3 | 0.00 | 0.00 | 0.00 | 75 | 1012.3 |
| 20260506095604 | 64 | 346 | 6.1 | 10.4 | 0.00 | 0.00 | 0.00 | 76 | 1012.4 |
| 20260506095058 | 64 | 330 | 6.1 | 10.4 | 0.00 | 0.00 | 0.00 | 76 | 1012.3 |
| 20260506094553 | 64 | 342 | 5.2 | 10.4 | 0.00 | 0.00 | 0.00 | 76 | 1012.3 |
| 20260506094046 | 63 | 323 | 4.3 | 9.6 | 0.00 | 0.00 | 0.00 | 77 | 1012.3 |
| 20260506093036 | 63 | 348 | 5.2 | 9.6 | 0.00 | 0.00 | 0.00 | 77 | 1012.3 |
| 20260506092532 | 63 | 0 | 5.2 | 9.6 | 0.00 | 0.00 | 0.00 | 77 | 1012.3 |
| 20260506092032 | 63 | 305 | 4.3 | 9.6 | 0.00 | 0.00 | 0.00 | 78 | 1012.3 |
| 20260506091033 | 62 | 325 | 4.3 | 8.7 | 0.00 | 0.00 | 0.00 | 78 | 1012.4 |
| 20260506090533 | 62 | 308 | 4.3 | 9.6 | 0.00 | 0.00 | 0.00 | 78 | 1012.3 |
| 20260506085532 | 62 | 350 | 4.3 | 7.8 | 0.00 | 0.00 | 0.00 | 79 | 1012.2 |
| 20260506085032 | 61 | 344 | 4.3 | 7.8 | 0.00 | 0.00 | 0.00 | 80 | 1012.2 |
| 20260506084033 | 60 | 38 | 1.7 | 7.8 | 0.00 | 0.00 | 0.00 | 80 | 1012.3 |
| 20260506083532 | 60 | 331 | 2.6 | 5.2 | 0.00 | 0.00 | 0.00 | 81 | 1012.2 |
| 20260506083032 | 60 | 348 | 3.5 | 7.8 | 0.00 | 0.00 | 0.00 | 80 | 1012.3 |
| 20260506082534 | 60 | 347 | 3.5 | 7.8 | 0.00 | 0.00 | 0.00 | 80 | 1012.3 |
| 20260506082034 | 60 | 0 | 3.5 | 7.8 | 0.00 | 0.00 | 0.00 | 80 | 1012.3 |
| 20260506081534 | 60 | 12 | 4.3 | 7.8 | 0.00 | 0.00 | 0.00 | 81 | 1012.3 |
| 20260506081034 | 60 | 325 | 3.5 | 7.0 | 0.00 | 0.00 | 0.00 | 82 | 1012.3 |
| 20260506080533 | 60 | 5 | 3.5 | 7.0 | 0.00 | 0.00 | 0.00 | 82 | 1012.3 |
| 20260506073032 | 57 | 36 | 2.6 | 7.0 | 0.00 | 0.00 | 0.00 | 85 | 1012.2 |
| 20260506072032 | 57 | 47 | 1.7 | 5.2 | 0.00 | 0.00 | 0.00 | 86 | 1012.3 |
| 20260506071532 | 57 | 26 | 2.6 | 5.2 | 0.00 | 0.00 | 0.00 | 86 | 1012.3 |
| 20260506071031 | 57 | 22 | 2.6 | 7.0 | 0.00 | 0.00 | 0.00 | 86 | 1012.3 |
| 20260506070531 | 56 | 96 | 3.5 | 8.7 | 0.00 | 0.00 | 0.00 | 86 | 1012.3 |